Home   Weather   Vellore   Past weeks
Flag for India

Past Weather in Vellore, Tamil Nadu, India — Yesterday and Last 2 Weeks

Now
84 °F

Passing clouds.


Feels Like: 87 °F
Forecast: 90 / 65 °F
Wind: 6 mph from South

Location: Madras / Minambakkam

Current Time: Jan 27, 2020 at 11:49:33 am

Latest Report: Jan 27, 2020 at 11:00 am


Visibility: 4 mi

Pressure: 29.95 "Hg

Humidity: 58%

Dew Point: 68 °F

Location of VelloreLocation

Past Weather in Vellore — Graph

°F

Vellore Temperature Yesterday

Maximum temperature yesterday: 88 °F (at 12:30 pm)
Minimum temperature yesterday: 70 °F (at 2:00 am)
Average temperature yesterday: 78 °F

High & Low Weather Summary for the Past Weeks

 TemperatureHumidityPressure
High90 °F (Jan 16, 1:00 pm)94% (Jan 13, 12:30 am)30.09 "Hg (Jan 13, 12:30 am)
Low68 °F (Jan 14, 3:30 am)35% (Jan 26, 1:30 pm)29.83 "Hg (Jan 13, 2:30 pm)
Average79 °F73%29.95 "Hg
* Reported Jan 12 10:30 am — Jan 27 10:30 am, Vellore. Weather by CustomWeather, © 2020

Note: Actual official high and low records may vary slightly from our data, if they occured in-between our weather recording intervals... More about our weather records

Vellore Weather History for the Previous 24 Hours

Scroll right to see more
 ConditionsComfort  
Time TempWeatherWind HumidityBarometerVisibility
10:30 am
Mon, Jan 27
82 °FHaze.6 mph66%29.98 "Hg3 mi
10:00 am82 °FHaze.6 mph66%29.98 "Hg3 mi
9:30 am81 °FFog.5 mph74%29.98 "Hg3 mi
9:00 am77 °FFog.No wind83%29.98 "Hg2 mi
8:30 am75 °FFog.No wind83%29.98 "Hg2 mi
8:00 am75 °FFog.3 mph83%29.95 "Hg2 mi
7:30 am73 °FFog.3 mph89%29.95 "Hg1 mi
7:00 am72 °FFog.3 mph88%29.92 "Hg1 mi
6:30 am72 °FFog.3 mph88%29.92 "Hg1 mi
5:30 am72 °FFog.3 mph94%29.89 "Hg2 mi
5:00 am72 °FFog.5 mph94%29.89 "Hg2 mi
4:30 am73 °FFog.5 mph89%29.89 "Hg3 mi
4:00 am73 °FFog.3 mph89%29.89 "Hg3 mi
3:30 am73 °FFog.No wind89%29.89 "Hg3 mi
3:00 am73 °FFog.3 mph89%29.89 "Hg3 mi
2:30 am73 °FFog.No wind89%29.92 "Hg3 mi
2:00 am73 °FFog.No wind89%29.92 "Hg3 mi
1:30 am73 °FFog.No wind89%29.92 "Hg3 mi
1:00 am73 °FFog.No wind89%29.92 "Hg3 mi
12:30 am75 °FHaze.No wind83%29.95 "Hg3 mi
12:00 am75 °FHaze.No wind83%29.95 "Hg3 mi
11:30 pm
Sun, Jan 26
77 °FHaze.3 mph79%29.95 "Hg3 mi
11:00 pm77 °FHaze.3 mph79%29.95 "Hg3 mi
10:30 pm77 °FHaze.3 mph79%29.95 "Hg3 mi
10:00 pm77 °FHaze.6 mph79%29.95 "Hg3 mi
9:30 pm79 °FHaze.6 mph74%29.95 "Hg3 mi
9:00 pm79 °FHaze.6 mph74%29.92 "Hg3 mi
8:30 pm79 °FHaze.6 mph74%29.92 "Hg3 mi
8:00 pm79 °FHaze.6 mph74%29.89 "Hg3 mi
7:30 pm79 °FHaze.6 mph74%29.89 "Hg3 mi
7:00 pm81 °FHaze.6 mph66%29.86 "Hg3 mi
6:30 pm81 °FHaze.7 mph66%29.86 "Hg3 mi
6:00 pm81 °FClear.7 mph62%29.86 "Hg3 mi
5:30 pm82 °FClear.7 mph58%29.86 "Hg4 mi
5:00 pm84 °FClear.7 mph55%29.86 "Hg4 mi
4:30 pm84 °FClear.8 mph51%29.83 "Hg4 mi
4:00 pm86 °FClear.8 mph46%29.86 "Hg4 mi
3:30 pm86 °FClear.9 mph46%29.86 "Hg4 mi
3:00 pm86 °FClear.8 mph46%29.86 "Hg4 mi
2:30 pm88 °FClear.9 mph43%29.86 "Hg4 mi
2:00 pm88 °FClear.8 mph38%29.89 "Hg4 mi
1:30 pm88 °FClear.7 mph35%29.89 "Hg4 mi
1:00 pm88 °FClear.9 mph40%29.92 "Hg4 mi
12:30 pm88 °FClear.5 mph43%29.92 "Hg4 mi
12:00 pm86 °FClear.5 mph49%29.95 "Hg4 mi
11:30 am86 °FClear.3 mph49%29.98 "Hg4 mi
11:00 am86 °FClear.2 mph52%29.98 "Hg4 mi
Weather by CustomWeather, © 2020

See weather overview

Advertising